Regional Weather Roundup
Issued by NWS

Home | Current Version | Previous Version | Text Only | Print | Product List | Glossary On
Versions: 1 2 3 4 5 6 7 8 9 10 11 12 13 14 15 16 17 18 19 20 21 22 23 24 25 26 27 28 29 30 31 32 33 34 35 36 37 38 39 40 41 42 43 44 45 46 47 48 49 50
000
ASUS45 KREV 252210
RWRNV
NEVADA REGIONAL WEATHER ROUNDUP
NATIONAL WEATHER SERVICE RENO NV
200 PM PST SUN JAN 25 2015

NOTE: "FAIR" INDICATES FEW OR NO CLOUDS BELOW 12,000 FEET WITH NO
SIGNIFICANT WEATHER AND/OR OBSTRUCTIONS TO VISIBILITY.

NVZ001-003-004-252300-
WESTERN NEVADA

CITY           SKY/WX    TMP DP  RH WIND       PRES   REMARKS
RENO           MOSUNNY   60  24  25 E3        30.29F
CARSON CITY    FAIR      57  21  24 E13       30.30F
PYRAMID LAKE     N/A     48 N/A N/A VRB6        N/A
FALLON         MOSUNNY   56  21  25 NE7       30.32F
LOVELOCK       SUNNY     55  24  30 N3        30.33F
HAWTHORNE      SUNNY     54  23  30 CALM      30.31F
$$

NVZ002-CAZ072-073-252300-
NORTHERN AND CENTRAL SIERRA

CITY           SKY/WX    TMP DP  RH WIND       PRES   REMARKS
S. LAKE TAHOE  SUNNY     66  21  18 N3        30.28F
TRUCKEE        SUNNY     64  25  22 S13G21    30.29F
SQUAW VLY 8000   N/A     48  25  40 CALM        N/A
SUSANVILLE     SUNNY     55  30  38 E7        30.32F
BLUE CANYON    SUNNY     70  20  15 VRB7      30.23F
MAMMOTH LAKES  FAIR      63  14  15 E17G25    30.34S
BRIDGEPORT     FAIR      64  16  15 E7G20     30.29F
$$

NVZ030-031-036-252300-
NORTHERN NEVADA

CITY           SKY/WX    TMP DP  RH WIND       PRES   REMARKS
ELKO           SUNNY     53  33  46 VRB3      30.37F
WINNEMUCCA     SUNNY     56  31  38 NE12      30.33F
WENDOVER       SUNNY     43  30  61 CALM      30.42F
$$

NVZ035-037-252300-
CENTRAL NEVADA

CITY           SKY/WX    TMP DP  RH WIND       PRES   REMARKS
ELY            SUNNY     55  32  41 N14       30.36F
EUREKA           N/A     56  33  42 NE5       30.37F
$$

NVZ013-014-252300-
SOUTH CENTRAL NEVADA

CITY           SKY/WX    TMP DP  RH WIND       PRES   REMARKS
TONOPAH        SUNNY     63  27  25 W3        30.31F
$$

NVZ017-020-022-252300-
SOUTHERN NEVADA

CITY           SKY/WX    TMP DP  RH WIND       PRES   REMARKS
LAS VEGAS      SUNNY     71  31  22 VRB3      30.14F
N. LAS VEGAS   SUNNY     70  29  21 S3        30.17F
NELLIS AFB     SUNNY     72  34  24 NE14      30.15F
HENDERSON      SUNNY     69  34  27 NE12      30.20F
MERCURY        SUNNY     71  28  20 SE18G24   30.17
$$



USA.gov is the U.S. government's official web portal to all federal, state and local government web resources and services.